Regional Weather Roundup
Issued by NWS

Home | Current Version | Previous Version | Graphics & Text | Print | Product List | Glossary On
Versions: 1 2 3 4 5 6 7 8 9 10 11 12 13 14 15 16 17 18 19 20 21 22 23 24 25 26 27 28 29 30 31 32 33 34 35 36 37 38 39 40 41 42 43 44 45 46 47 48 49 50
160
ASUS43 KMKX 190159
RWRWI

WISCONSIN REGIONAL WEATHER ROUNDUP
NATIONAL WEATHER SERVICE MILWAUKEE/SULLIVAN WI
800 PM CST WED JAN 18 2017

NOTE: "FAIR" INDICATES FEW OR NO CLOUDS BELOW 12,000 FEET WITH NO
SIGNIFICANT WEATHER AND/OR OBSTRUCTIONS TO VISIBILITY.

WIZ001-002-006>008-014>016-023>028-190300-
NORTHWEST WISCONSIN

CITY           SKY/WX    TMP DP  RH WIND       PRES   REMARKS
SUPERIOR ARPT  CLOUDY    33  27  77 SW5       29.82S WCI  28
ASHLAND        CLOUDY    36  28  73 SW12      29.83S WCI  28
HAYWARD        CLOUDY    31  27  85 S3        29.85S
SIREN          CLOUDY    32  29  89 S5        29.85S WCI  27
CUMBERLAND     CLOUDY    28  27  93 S7        29.86S WCI  21
RICE LAKE      CLOUDY    32  29  90 SE3       29.89S FOG
CHETEK         NOT AVBL
LADYSMITH      CLOUDY    33  30  88 S5        29.90S WCI  28
EAU CLAIRE     NOT AVBL
MENOMONIE      CLOUDY    33  31  92 MISG      29.90S
NEW RICHMOND   CLOUDY    32  31  96 S5        29.87S WCI  27
OSCEOLA        CLOUDY    33  33 100 S8        29.89S WCI  25
$$

WIZ003>005-009-010-017-018-190300-
NORTH CENTRAL WISCONSIN

CITY           SKY/WX    TMP DP  RH WIND       PRES   REMARKS
MANITOWISH WTR CLOUDY    31  28  86 SW5       29.83S WCI  27
ARBOR VITAE    CLOUDY    37  31  79 SW6       29.84S WCI  32
WOODRUFF       CLOUDY    37  31  79 SW6       29.84S WCI  32
RHINELANDER    CLOUDY    33  29  85 SW9       29.86R WCI  25
EAGLE RIVER    CLOUDY    33  27  80 SW5       29.83S WCI  28
LAND O LAKES   CLOUDY    34  28  80 CALM      29.83S
PHILLIPS       CLOUDY    25  25 100 CALM      29.87R
TOMAHAWK       CLOUDY    28  27  94 CALM      29.88R
MEDFORD        CLOUDY    31  28  86 SW7       29.88S WCI  25
MERRILL        CLOUDY    32  30  92 SW5         N/A  WCI  27
$$

WIZ029-030-035-036-043>047-190300-
CENTRAL WISCONSIN

CITY           SKY/WX    TMP DP  RH WIND       PRES   REMARKS
WAUSAU         CLOUDY    33  29  85 S5        29.89R WCI  29
MOSINEE        CLEAR     32  30  93 SW9       29.91R WCI  24
MARSHFIELD     CLOUDY    31  27  85 SW7       29.89S WCI  24
STEVENS POINT  CLEAR     32  29  90 SW7       29.93S WCI  25
WAUPACA        CLEAR     35  30  82 CALM      29.94S
WAUTOMA        CLOUDY    32  29  88 SW8       29.95F WCI  25
WISC RAPIDS    CLOUDY    32  30  92 SW8       29.94S WCI  25
CAMP DOUGLAS   NOT AVBL
$$

WIZ011>013-019>022-031-037>040-048>050-190300-
NORTHEAST WISCONSIN

CITY           SKY/WX    TMP DP  RH WIND       PRES   REMARKS
ANTIGO         CLOUDY    30  29  94 SW5       29.87S WCI  25
SHAWANO        CLEAR     38  31  77 SW9       29.91R WCI  31
OCONTO         NOT AVBL
STURGEON BAY   CLEAR     34  30  85 SW10      29.91S WCI  26
GREEN BAY      CLEAR     35  32  88 SW9       29.92S WCI  28
MANITOWOC      NOT AVBL
APPLETON       CLEAR     32  30  93 SW14      29.92S WCI  22
CLINTONVILLE   CLEAR     34  30  86 SW7       29.92R WCI  28
OSHKOSH        CLEAR     32  29  88 SW12      29.94S WCI  23
$$

WIZ032>034-041-042-053>061-190300-
SOUTHWEST WISCONSIN

CITY           SKY/WX    TMP DP  RH WIND       PRES   REMARKS
LA CROSSE      CLOUDY    36  31  82 S9        29.96F WCI  29
SPARTA         CLOUDY    32  30  93 SW6       29.96S WCI  26
VIROQUA        CLOUDY    32  32 100 SW10G17   29.96S WCI  23
BOSCOBEL       CLOUDY    35  31  85 SW6       30.01F WCI  30
PRAIRIE DU CHI CLOUDY    34  32  92 S5        30.01F FOG     WCI  30
PLATTEVILLE    CLOUDY    33  33 100 S9        30.02F WCI  25
$$

WIZ056-057-062-063-064-067-068-190300-
SOUTH CENTRAL WISCONSIN

CITY           SKY/WX    TMP DP  RH WIND       PRES   REMARKS
REEDSBURG      NOT AVBL
BARABOO/DELLS  CLOUDY    32  30  93 CALM      29.97S FOG
LONE ROCK      CLOUDY    33  30  88 SW8       30.02S FOG     WCI  26
MINERAL POINT  CLOUDY    34  34 100 S10       30.00F FOG     WCI  26
MADISON        CLOUDY    33  30  88 S10       30.01S FOG     WCI  25
MIDDLETON      CLOUDY    33  33 100 SW15      30.00F WCI  23
WATERTOWN      CLOUDY    32  32 100 SW10      30.00F WCI  24
MONROE         CLOUDY    32  32 100 SW14      30.02S FOG     WCI  22
JANESVILLE     CLOUDY    34  34 100 SW13      30.04S FOG     WCI  25
$$

WIZ051-052-058>065-066-070>072-190300-
SOUTHEAST WISCONSIN

CITY           SKY/WX    TMP DP  RH WIND       PRES   REMARKS
MILWAUKEE      CLOUDY    34  30  85 SW12      30.01F FOG     WCI  25
WAUKESHA       CLOUDY    30  28  93 SW9G16    30.01F FOG     WCI  22
MILWAUKEE/TIMM CLOUDY    32  28  86 SW10      30.01F WCI  24
RACINE         CLOUDY    34  30  85 SW8       30.04F WCI  27
KENOSHA        CLOUDY    34  31  88 SW12      30.04S WCI  25
FOND DU LAC    PTCLDY    33  28  81 SW14G21   29.97R WCI  23
SHEBOYGAN      CLEAR     33  29  85 SW10      29.96S WCI  25
WEST BEND      CLEAR     32  32 100 W3        29.98S FOG
JUNEAU         CLOUDY    32  31  95 S12G18    30.00S FOG     WCI  23
$$

LSZ147-162-190300-
LAKE SUPERIOR

STATION/POSITION TIME  TEMP    WIND        PRES    WAVE
                       AIR SEA DIR/SP/G            HT/PER
                 (UTC) (F)     (DEG/KT/KT) (MB)    (FT/S)
DEVILS ISLAND    0100   36     220/ 11/ 12 1010.0F
PORT WING        0040   37     190/  4/  5 1010.2R
SAXON HARBOR     0030   40     200/  5/ 10 1009.8R
$$

LMZ867-665-643>646-190300-
LAKE MICHIGAN

STATION/POSITION TIME  TEMP    WIND        PRES    WAVE
                       AIR SEA DIR/SP/G            HT/PER
                 (UTC) (F)     (DEG/KT/KT) (MB)    (FT/S)
NORTHPORT PIER   0040   35     170/  1/  5 1011.9F
SISTER BAY       0050   36     230/ 10/ 13   N/A
KEWAUNEE LAKESHO 0130   35     230/  5/ 11 1012.9S
SHEBOYGAN LAKESH 0100   35     220/ 13/ 15 1015.1R
PORT WASHINGTON  0030   33     210/  7/ 15 1016.3F
MILWAUKEE LAKESH 0130   34     220/ 14/ 16   N/A
KENOSHA   LAKESH 0100   34     230/  6/ 13 1017.6
$$

TC  - TEMPERATURE IN CELSIUS
VSB - VISIBILITY IN STATUTE MILES
WCI - WIND CHILL INDEX
HX  - HEAT INDEX





USA.gov is the U.S. government's official web portal to all federal, state and local government web resources and services.